Location: Unspecified
(35.7250°N, 0.0000°E)
Time: 03:31:24
(UTC+00:00)

Vanguard 1 - Pass Details

Date: 26 June 2019
Orbit: 653 x 3830 km, 34.3° (Epoch: 17 July)

Event Time Altitude Azimuth Distance (km) Brightness Sun altitude
Rises 04:47:53 0° 273° (W) 7,223 14.0 -0.4°
Reaches altitude 10° 04:53:22 10° 273° (W) 5,776 13.5 0.5°
Maximum altitude 05:09:06 81° 189° (S) 1,827 11.5 3.4°
Drops below altitude 10° 05:17:12 10° 103° (ESE) 3,170 13.6 4.8°
Sets 05:19:22 0° 102° (ESE) 3,881 14.1 5.2°
